GFSWCAN_con_sbcape_336.txt.gz
CAPE
7 6 5 6 9 9 6 4 4 6 6 6 3 3 5 4 4 0 0 0 0 0 0 0 0 0 0 0 0 0 0 0 0 0 0 0 0 0 9 13 19 108 238 142 372 440 260 32 110 625 523 771 817 1523
4 3 6 7 8 10 9 10 7 5 5 6 6 4 4 3 4 0 0 0 0 0 0 0 0 0 0 0 0 0 0 0 0 0 3 2 2 4 17 2 19 12 186 341 365 497 493 312 308 337 200 3 272 849
3 4 6 8 9 9 10 10 11 9 6 4 4 3 3 1 4 2 0 0 0 0 0 0 0 0 0 0 0 0 0 0 0 0 0 0 0 0 0 0 0 2 149 90 150 275 467 267 4 0 0 0 16 167
2 1 6 7 7 8 9 9 10 11 7 8 3 2 2 4 5 2 0 0 0 0 0 0 0 0 0 0 0 0 0 0 0 0 0 0 0 0 0 0 0 0 0 0 0 64 50 238 0 2 0 7 79 240
5 4 5 5 7 8 8 8 9 8 4 4 2 2 2 5 5 1 0 0 0 0 0 0 0 0 0 0 0 0 0 0 0 0 0 0 0 0 0 0 0 0 7 0 0 1 0 6 19 0 58 229 433 511
4 3 3 5 4 5 11 8 7 6 3 4 2 2 3 5 5 0 0 0 1 2 0 0 0 0 0 0 0 0 0 0 0 0 0 0 9 0 0 0 0 5 25 23 6 0 0 0 14 16 53 70 210 625
4 3 1 1 6 4 6 6 4 3 2 2 1 1 1 3 1 0 0 0 0 0 0 0 0 0 0 0 0 0 0 0 0 0 0 0 5 0 0 2 6 55 53 61 19 0 10 77 68 68 118 198 333 830
0 5 2 0 6 4 3 6 1 2 0 0 0 0 0 0 0 0 0 0 0 0 2 0 0 6 0 0 0 4 8 1 0 0 0 1 3 11 3 11 61 79 69 40 23 7 19 40 144 233 322 255 452 817
0 1 4 2 3 5 3 3 1 0 0 0 0 0 0 0 6 1 0 0 0 0 4 0 0 65 16 1 40 36 12 21 29 23 15 2 1 17 82 71 92 64 42 13 17 31 71 120 202 260 273 393 479 718
0 3 3 4 2 5 3 2 1 0 0 0 0 0 6 0 0 0 0 1 5 8 0 0 0 12 1 20 29 11 43 20 16 15 26 21 32 51 37 23 17 0 26 11 23 30 89 191 264 381 488 478 779 857
2 4 5 5 4 3 3 2 1 0 0 0 0 2 0 0 0 4 12 18 30 22 8 0 0 10 44 43 63 45 33 61 30 33 43 24 52 160 69 28 0 0 0 3 2 1 2 77 304 300 516 744 837 962
1 0 4 4 2 2 1 2 0 0 3 0 0 0 0 0 4 9 8 15 54 55 100 75 137 48 152 51 87 51 30 40 43 71 79 43 350 181 56 35 15 0 0 0 0 2 57 115 106 346 690 727 966 945
1 0 1 1 2 0 0 1 0 0 0 0 4 2 16 1 1 9 2 102 127 75 106 132 226 52 51 43 82 102 50 55 55 61 30 393 538 216 145 49 9 0 0 0 0 12 90 100 211 269 476 740 887 810
5 4 1 2 1 0 2 0 0 0 0 24 21 5 57 24 33 26 39 120 103 107 90 91 171 102 238 141 131 69 91 123 52 32 85 420 334 192 62 6 0 0 0 0 6 30 28 41 152 193 470 753 781 639
9 6 1 1 0 0 0 0 0 1 20 33 0 0 26 39 23 50 47 57 45 116 52 111 138 77 299 164 232 160 81 96 35 97 244 330 378 266 89 2 0 1 10 15 22 74 236 219 382 399 532 690 807 658
8 0 0 0 0 0 0 0 3 12 0 0 11 4 23 34 37 32 46 28 35 70 121 169 115 62 86 160 99 133 58 71 125 216 116 544 492 264 77 11 3 18 59 50 111 312 392 513 552 529 411 402 616 757
7 9 0 0 0 0 0 0 22 23 45 24 9 0 14 36 43 71 34 13 253 3 231 153 79 74 65 98 106 99 110 136 159 77 405 890 417 225 125 26 41 43 246 380 337 503 526 515 518 551 246 86 404 163
13 9 0 0 0 1 12 1 21 40 28 9 23 27 54 25 31 27 29 8 93 76 179 106 30 106 85 59 60 131 186 153 209 267 336 409 284 151 0 23 91 378 451 485 518 447 375 372 439 422 82 4 39 10
10 15 0 5 0 6 8 20 28 28 26 22 33 35 19 16 36 56 47 21 19 76 133 244 56 101 102 77 75 170 191 234 100 143 338 699 236 26 9 57 541 393 173 34 117 218 117 195 105 74 41 43 89 83
11 11 9 13 6 12 14 15 21 16 12 41 32 30 48 33 71 49 56 34 40 21 157 72 98 121 92 211 191 224 83 113 42 33 374 566 378 265 244 58 165 464 74 0 0 0 29 94 164 28 23 22 114 83
10 5 6 28 26 10 12 8 5 4 15 31 28 31 42 45 62 52 33 32 39 43 49 58 115 185 270 16 92 235 402 38 26 162 206 229 60 275 227 171 306 244 67 24 0 1 14 136 534 569 187 130 125 246
28 10 25 20 20 15 12 4 5 3 24 27 13 41 36 68 75 50 23 12 50 73 36 40 92 155 195 98 22 224 448 263 153 4 0 0 2 36 49 86 117 75 75 47 33 32 81 113 210 230 276 162 34 75
10 15 21 12 12 9 0 12 17 19 54 29 25 44 40 44 60 129 28 21 23 84 92 71 190 336 289 181 88 360 417 50 49 76 35 30 49 32 48 72 46 125 147 120 187 61 110 74 67 50 106 59 34 51
0 18 14 15 5 2 9 15 13 8 10 12 28 27 37 66 82 58 41 55 59 178 187 430 200 33 39 322 167 7 23 171 49 153 54 36 33 31 38 57 62 53 72 61 147 101 64 87 9 43 52 56 47 64
10 1 8 0 17 12 9 12 13 16 18 29 28 31 66 119 62 58 37 48 154 74 170 229 119 3 6 12 16 36 631 90 51 116 59 33 39 82 56 98 49 129 58 60 46 42 27 110 60 51 53 57 51 56
5 8 1 12 17 7 17 14 14 23 24 25 29 47 59 89 45 36 103 107 76 137 4 14 250 34 20 61 122 46 222 158 110 81 90 54 61 107 140 161 216 38 62 132 105 105 77 106 72 72 50 14 4 35
5 13 18 25 11 18 12 12 6 28 24 41 44 73 43 27 35 123 40 215 115 298 156 202 158 368 286 171 155 179 17 187 20 32 68 79 71 63 104 200 263 286 340 206 305 86 116 143 73 69 31 48 52 9
11 22 34 38 20 16 13 19 25 24 33 64 52 50 32 49 29 44 55 85 57 12 48 153 116 0 0 174 181 171 186 32 1 12 50 68 79 82 67 96 158 6 43 142 73 105 88 60 70 60 30 43 58 36
15 13 22 27 23 13 6 9 7 5 26 34 63 41 60 93 58 52 79 83 16 7 18 129 219 326 257 210 216 36 22 17 18 9 35 86 134 118 227 78 205 254 129 140 0 0 15 52 172 127 77 46 55 81
18 16 29 24 24 16 11 7 1 14 19 24 31 43 43 50 81 53 6 0 14 15 15 270 335 191 234 92 46 36 36 19 36 55 67 78 88 125 86 56 53 88 54 11 186 57 0 0 0 18 24 62 102 167
26 31 22 21 13 8 8 12 14 10 12 13 12 17 11 14 18 32 34 11 0 0 0 14 134 38 169 76 261 111 47 60 59 72 139 96 104 67 11 0 40 83 140 12 166 21 0 0 0 0 0 3 16 16
12 15 13 10 4 5 12 8 10 22 14 16 23 34 30 38 31 32 17 2 0 0 0 1 66 143 237 245 289 77 1 22 45 68 75 64 90 78 47 73 47 104 56 60 205 207 18 0 0 0 0 0 21 30
9 8 11 10 3 1 3 2 5 2 7 14 35 35 27 31 24 37 6 0 0 0 4 44 91 170 212 317 377 245 87 63 50 0 0 0 0 0 27 72 90 48 0 0 0 32 236 68 13 13 25 40 47 61

GFSWCAN_con_sbcape_339.txt.gz
CAPE
6 2 2 2 5 11 13 11 14 11 7 6 6 6 5 5 5 2 0 0 0 0 0 0 0 0 0 0 0 0 0 0 0 0 0 0 0 0 0 11 68 21 100 96 87 0 0 21 104 490 264 291 61 26
1 1 4 2 4 10 10 12 10 14 13 8 6 5 5 3 5 0 0 0 0 0 0 0 0 0 0 0 0 0 0 0 0 0 0 0 0 0 0 0 3 66 38 175 131 62 3 0 6 0 0 0 0 0
6 5 5 5 3 4 7 7 11 5 9 7 5 4 4 5 6 5 0 0 0 0 0 0 0 0 0 0 0 0 0 0 0 0 0 0 0 0 0 0 0 0 0 0 12 0 6 0 0 0 0 0 0 0
6 6 6 7 6 7 10 11 9 8 1 4 3 3 5 6 6 7 0 0 0 0 0 0 0 0 0 0 0 0 0 0 0 0 0 0 0 0 0 0 0 0 0 0 0 0 0 0 0 0 0 0 0 0
1 5 2 2 2 4 9 7 10 9 6 6 7 5 4 6 5 4 0 0 0 0 0 0 0 0 0 0 0 0 0 0 0 0 0 0 0 0 0 0 0 0 0 0 0 0 0 0 0 0 0 0 0 0
1 1 3 6 2 1 6 6 6 8 0 1 5 3 4 5 5 0 0 0 0 9 4 0 0 0 0 0 0 0 0 0 0 0 0 0 0 0 0 0 0 0 0 0 0 0 0 0 0 0 0 0 14 232
0 0 0 1 4 1 3 5 4 2 2 2 2 0 0 1 1 0 0 0 0 0 0 0 0 0 0 0 0 0 0 0 0 0 0 0 0 0 0 0 0 4 0 0 0 0 0 0 0 0 0 0 48 264
0 0 0 3 3 3 2 4 3 1 1 1 0 0 0 0 0 0 0 0 0 0 0 0 0 4 2 0 0 0 0 0 0 0 0 0 0 10 1 0 37 8 0 0 0 0 0 0 0 0 0 20 91 529
0 0 0 2 3 3 4 4 2 1 0 0 0 0 0 0 0 1 0 0 0 0 0 4 0 40 21 29 54 38 63 25 30 0 0 0 0 0 82 66 20 0 0 5 0 0 0 0 0 0 0 13 127 349
0 3 5 4 5 5 2 1 1 0 0 0 0 0 4 0 0 0 0 0 0 0 0 0 0 0 19 58 51 31 39 10 11 1 13 18 6 65 28 22 0 0 0 0 0 0 0 0 0 9 30 53 166 429
3 2 0 1 1 0 4 1 0 0 0 0 0 0 0 0 0 2 8 11 15 13 0 0 0 0 44 141 154 127 65 67 39 20 40 22 80 81 34 0 0 0 0 0 0 0 0 0 0 18 138 150 270 306
1 0 1 0 0 1 3 1 0 0 0 0 0 0 0 0 0 12 22 23 56 71 244 182 36 0 240 255 159 133 59 75 49 187 108 118 235 101 50 2 0 0 0 0 0 0 0 2 7 29 115 152 366 315
1 5 3 0 1 2 1 1 1 0 0 0 0 0 9 0 1 8 0 44 121 57 149 303 238 120 198 186 214 188 143 88 83 119 69 214 483 217 85 13 0 0 0 0 0 0 0 6 8 59 30 343 415 375
5 6 5 4 1 0 0 0 0 0 1 15 38 7 11 19 23 23 76 86 213 383 74 0 175 105 388 189 295 125 199 169 93 38 129 298 496 101 77 69 0 0 0 0 0 2 3 19 41 4 77 271 333 343
8 7 1 0 0 0 0 0 0 0 0 22 42 0 2 18 15 34 63 35 99 126 146 4 55 131 56 155 244 129 98 86 135 109 346 428 449 303 129 52 0 0 1 1 1 11 105 131 193 117 193 206 261 359
8 1 0 0 0 0 0 0 0 0 22 3 3 1 0 9 41 13 40 93 124 139 125 119 65 48 84 65 86 122 130 103 167 249 411 537 552 360 161 93 36 116 103 70 118 71 203 190 156 200 255 176 142 363
8 1 0 0 0 0 0 0 4 16 19 11 0 0 0 5 2 16 17 98 135 182 115 63 0 23 9 102 125 175 176 218 250 359 338 424 419 223 130 23 164 285 258 245 217 158 134 126 152 269 243 54 69 258
6 3 0 0 0 1 19 0 0 21 27 13 5 1 4 32 25 30 27 48 92 17 39 40 53 57 86 68 118 101 141 55 406 502 466 687 566 311 132 125 326 273 256 174 147 118 48 29 10 3 1 6 111 46
6 9 1 2 6 3 9 16 8 11 19 19 16 19 20 32 17 35 7 35 116 58 23 32 18 17 1 31 134 53 147 52 30 285 611 526 372 212 118 366 337 263 19 2 0 0 8 3 8 5 13 17 1 12
13 10 4 7 19 18 10 7 1 9 3 2 0 14 41 16 21 65 21 25 57 78 117 104 55 28 35 41 265 234 105 178 113 348 396 436 423 408 442 342 336 428 20 24 11 0 0 0 0 0 2 9 5 21
9 2 10 18 26 24 8 6 2 8 5 6 4 25 21 77 68 63 61 54 59 30 24 10 24 1 12 171 94 106 25 58 130 280 295 393 301 338 443 481 663 508 111 13 4 0 38 44 13 21 28 0 0 17
15 15 21 24 15 11 10 2 6 4 2 8 2 4 17 14 57 80 22 23 19 5 7 7 31 47 55 142 91 14 40 84 3 75 0 0 263 285 345 296 352 58 35 34 21 1 27 163 123 96 108 49 38 68
10 15 20 12 13 8 0 10 11 11 33 46 20 17 48 89 136 126 45 23 2 1 1 24 46 300 306 105 143 42 13 0 5 105 95 43 77 270 205 208 126 101 180 70 87 83 119 120 52 11 79 108 49 50
0 14 10 15 8 0 7 8 14 11 27 23 17 26 35 151 130 57 1 10 9 91 43 143 214 79 90 296 218 303 94 56 23 66 75 110 31 91 136 79 60 36 117 145 72 196 81 50 77 30 41 54 18 39
5 0 2 0 11 8 7 23 27 34 26 35 28 11 50 110 49 56 28 65 217 336 148 352 178 254 88 37 158 76 15 7 32 71 307 230 63 48 217 99 195 154 55 90 123 126 161 131 29 28 34 37 24 57
1 3 1 11 21 13 28 15 20 24 33 20 11 20 100 61 42 25 123 78 201 265 220 114 260 124 121 161 50 129 51 51 227 211 94 133 37 43 157 198 240 280 91 72 40 72 78 119 128 146 40 1 1 23
3 6 14 18 28 23 11 15 5 10 14 18 53 61 35 17 25 150 180 222 261 13 3 5 36 31 122 32 17 199 66 275 426 197 212 150 52 67 130 302 466 464 307 194 256 285 54 122 110 37 84 27 26 23
10 12 25 48 25 32 21 24 19 14 12 20 46 30 37 11 69 245 14 60 121 43 3 0 39 37 6 0 0 260 163 176 105 133 41 81 106 53 67 31 111 102 310 34 47 116 147 127 182 104 35 31 74 40
16 6 12 11 32 32 13 8 10 4 23 12 10 53 32 51 77 66 51 82 38 41 40 13 0 1 0 0 6 61 78 190 151 68 114 124 67 44 33 77 15 212 146 155 88 34 1 56 174 175 311 122 70 91
8 11 9 7 15 23 10 0 0 0 5 12 17 4 20 27 140 82 55 42 47 5 54 199 71 0 11 87 140 165 246 57 8 10 26 58 194 110 108 66 26 19 12 16 5 14 55 0 0 10 29 101 121 182
37 51 18 13 13 15 12 6 5 2 1 0 0 0 0 0 0 0 4 20 30 9 10 29 143 81 160 181 324 325 99 57 71 49 45 91 192 216 298 191 51 34 2 58 106 55 66 86 0 0 2 63 104 15
8 7 13 7 5 2 0 0 0 0 0 0 0 4 13 17 0 0 0 2 9 9 12 0 26 19 18 24 180 304 46 158 401 88 79 49 130 220 198 111 78 38 0 67 161 35 72 12 19 4 2 44 47 37
1 4 6 6 0 0 3 0 0 0 0 4 11 18 16 11 16 6 69 12 16 5 18 9 19 93 312 265 166 72 77 629 4 0 0 81 121 140 128 254 64 71 43 144 57 98 69 38 20 230 155 35 23 50

GFSWCAN_con_sbcape_342.txt.gz
CAPE
2 1 6 5 4 3 10 8 8 11 10 3 8 3 6 5 6 0 0 0 0 0 0 0 0 0 0 0 0 0 0 0 0 0 0 0 0 0 0 0 0 0 0 0 0 0 0 0 0 0 0 0 17 0
8 2 10 8 7 5 10 12 9 9 2 7 5 1 3 6 6 1 0 0 0 0 0 0 0 0 0 0 0 0 0 0 0 0 0 0 0 0 0 0 0 0 0 0 0 0 0 0 0 0 0 0 0 0
3 4 8 7 6 4 2 8 8 13 9 3 5 1 3 8 8 4 0 0 0 0 0 0 0 0 0 0 0 0 0 0 0 0 0 0 0 0 0 0 0 0 0 0 0 0 0 0 0 0 0 0 0 0
0 0 3 3 4 0 1 2 6 7 4 6 4 1 1 4 3 6 0 0 0 0 0 0 0 0 0 0 0 0 0 0 0 0 0 0 0 0 0 0 0 0 0 0 0 0 0 0 0 0 0 0 0 0
0 0 0 0 3 3 1 1 5 6 6 4 2 2 4 1 1 0 0 0 0 0 0 0 0 0 0 0 0 0 0 0 0 0 0 0 0 0 0 0 0 0 0 0 0 0 0 0 0 0 0 0 0 5
0 0 0 0 3 5 2 2 3 4 4 3 4 4 5 5 3 0 0 0 0 0 0 0 0 0 0 0 0 0 0 0 0 0 0 0 0 0 0 0 0 0 0 0 0 0 0 0 0 0 0 0 0 0
0 0 0 0 3 4 4 3 2 3 3 3 0 2 2 1 0 0 0 0 0 0 0 0 0 0 0 0 0 0 0 0 0 0 0 0 0 0 0 0 0 0 0 0 0 0 0 0 0 0 0 0 0 3
0 0 0 1 4 6 6 5 4 1 1 1 1 1 0 0 0 0 0 0 0 0 0 0 0 0 0 0 0 0 0 0 0 0 0 0 0 0 0 0 0 0 0 0 0 0 0 0 0 0 0 0 0 0
0 0 1 4 2 1 0 1 5 1 0 0 0 1 0 0 0 0 0 0 0 0 0 0 0 0 0 0 0 0 0 0 0 0 0 0 0 0 0 0 0 0 0 0 0 0 0 0 0 0 0 0 0 9
5 5 4 1 0 1 1 1 3 0 0 0 0 0 0 0 0 0 0 0 0 0 0 0 0 0 0 0 2 0 0 1 0 0 0 0 0 0 3 0 0 0 0 0 0 0 0 0 0 0 0 0 11 4
9 4 1 1 0 1 1 3 2 0 0 0 0 0 0 0 0 0 0 0 0 0 0 0 0 0 0 23 15 1 15 9 2 0 0 0 29 4 0 0 0 0 0 0 0 0 0 0 0 0 0 0 0 0
4 3 2 3 2 1 1 1 1 0 0 0 0 0 0 0 0 0 4 1 5 0 0 0 0 0 0 0 10 13 17 0 11 0 34 55 46 0 0 0 0 0 0 0 0 0 0 0 0 0 0 0 0 0
4 5 5 5 4 2 1 0 0 0 0 0 0 0 0 0 0 0 0 1 1 7 12 1 6 7 2 0 0 35 61 7 0 9 13 30 56 0 0 0 0 0 0 0 0 0 0 0 0 0 0 0 0 0
4 5 2 1 1 0 0 0 0 0 0 0 2 8 3 11 2 0 7 24 46 78 24 11 1 38 17 40 17 36 21 5 40 9 20 175 0 0 0 0 0 0 0 0 0 0 0 0 0 0 0 0 0 0
5 5 1 2 0 0 0 0 0 0 0 0 0 3 0 0 6 4 9 7 16 4 0 0 0 23 13 10 4 32 41 36 4 14 172 167 29 16 0 0 0 0 0 0 0 0 0 0 0 0 0 0 0 0
8 1 0 0 0 0 0 0 0 0 0 0 0 0 0 0 0 0 1 24 16 40 6 8 0 16 11 20 10 34 46 28 28 132 271 181 82 34 1 0 0 0 0 0 0 0 0 0 0 0 0 0 0 0
8 0 8 0 0 0 0 0 0 16 3 0 0 0 0 0 0 0 12 12 51 18 20 0 0 21 0 0 32 40 38 85 213 289 253 169 87 12 0 0 0 0 0 0 0 0 0 0 0 0 0 0 0 0
5 0 1 0 0 0 2 0 1 13 25 5 1 0 0 0 0 0 1 55 32 2 11 19 36 48 52 24 31 0 17 36 147 162 210 155 69 2 0 0 0 0 0 0 0 0 0 0 0 0 0 0 0 0
4 6 8 6 3 3 2 6 10 8 4 0 0 0 0 0 0 1 8 6 34 21 40 10 13 16 0 0 0 0 0 0 0 141 283 184 19 0 0 4 2 0 0 0 0 0 0 0 0 0 8 1 0 0
18 9 3 12 13 7 9 1 5 2 4 0 0 0 0 0 0 3 8 10 15 27 32 31 3 0 0 0 0 0 6 0 9 172 162 48 24 8 3 17 19 0 0 0 0 0 0 0 0 0 0 0 0 1
8 0 5 9 7 5 8 3 1 0 0 0 0 0 0 0 0 9 9 5 31 33 7 0 4 15 4 2 0 0 4 0 0 18 49 46 31 18 9 36 12 15 0 0 0 0 0 0 0 0 0 0 0 4
1 17 8 11 14 16 6 0 1 0 0 0 0 0 0 0 0 3 12 23 2 0 0 0 0 1 0 19 6 0 0 0 0 0 1 0 97 45 44 46 31 42 32 3 0 0 0 0 0 0 0 0 1 6
6 10 17 6 14 7 0 1 6 7 15 8 4 6 1 10 9 13 3 0 0 0 0 0 0 0 0 7 32 8 0 0 0 0 0 4 0 30 44 42 31 28 15 0 0 0 0 0 29 38 19 40 34 44
0 12 11 12 7 0 5 4 9 15 25 27 15 27 7 3 30 11 2 0 0 0 0 0 0 0 11 41 18 3 0 0 0 0 0 2 0 0 5 10 12 20 2 3 0 0 0 3 13 7 5 20 14 10
4 0 1 0 4 6 7 25 24 24 23 25 36 13 0 25 20 31 24 10 37 15 38 47 23 30 45 23 33 23 13 0 0 2 0 0 0 0 0 0 0 0 0 17 4 0 13 4 6 18 10 3 3 0
0 1 0 4 6 4 15 19 25 21 27 23 22 7 26 16 23 21 28 21 47 27 26 7 42 23 47 49 17 0 0 0 0 3 4 1 0 2 0 3 0 1 0 6 3 8 5 12 2 0 0 6 0 0
1 7 2 0 8 14 5 8 2 3 18 11 13 34 22 21 30 16 21 37 12 0 0 0 15 26 30 19 1 0 0 1 3 18 32 60 19 1 1 2 6 4 0 0 0 1 10 1 2 8 4 0 0 0
3 14 21 12 1 11 26 17 20 19 9 0 16 37 30 12 10 24 0 0 13 16 0 0 1 7 4 0 2 1 0 1 19 25 26 0 1 0 0 0 1 1 0 2 0 0 4 7 7 0 1 6 0 0
13 6 3 0 13 22 8 5 8 2 0 26 14 20 18 4 14 12 0 0 0 2 1 0 16 4 0 6 0 0 0 0 0 8 8 0 8 18 0 0 0 0 0 0 0 0 0 0 0 0 0 0 0 0
0 0 2 7 20 20 6 0 0 0 0 0 0 0 0 0 0 1 0 0 0 0 0 0 14 0 4 3 41 47 36 12 25 24 6 0 3 0 0 0 0 0 0 0 0 0 0 0 0 0 0 0 0 0
2 3 1 0 0 0 0 0 0 0 0 0 0 0 0 0 0 0 0 0 0 0 0 3 64 48 16 21 25 40 67 37 25 10 0 5 2 3 0 1 0 0 0 0 0 0 0 1 0 9 0 0 0 0
1 0 0 0 0 0 0 0 0 0 0 0 0 0 0 0 0 0 0 0 0 0 0 0 0 0 9 1 3 20 1 0 0 0 0 0 0 0 0 0 0 0 0 0 0 0 3 21 7 0 0 0 0 0
0 0 0 0 0 0 0 0 0 0 0 0 0 0 0 0 0 2 0 0 0 0 0 0 0 0 0 0 15 11 0 5 0 0 0 0 0 0 0 0 0 0 0 0 0 15 18 0 0 0 0 8 17 5

GFSWCAN_con_sbcape_345.txt.gz
CAPE
1 4 4 10 7 7 7 8 8 11 10 6 4 2 1 1 1 0 0 0 0 0 0 0 0 0 0 0 0 0 0 0 0 0 0 0 0 0 0 0 0 0 0 0 0 0 0 0 0 0 0 0 0 0
0 0 1 3 2 5 5 1 3 5 5 9 4 5 1 1 1 0 0 0 0 0 0 0 0 0 0 0 0 0 0 0 0 0 0 0 0 0 0 0 0 0 0 1 0 0 0 0 0 0 0 0 0 0
0 0 1 2 1 1 7 1 2 1 1 2 5 2 1 1 1 3 0 0 0 0 0 0 0 0 0 0 0 0 0 0 0 0 0 0 0 0 0 0 0 0 0 0 0 0 0 0 0 0 0 0 0 0
0 0 0 0 0 0 2 5 5 3 1 1 4 2 0 1 2 4 0 0 0 0 0 0 0 0 0 0 0 0 0 0 0 0 0 0 0 0 0 0 0 0 0 0 0 0 0 0 0 0 0 0 0 0
0 0 0 0 0 0 2 4 6 7 5 5 3 1 1 1 1 0 0 0 0 0 0 0 0 0 0 0 0 0 0 0 0 0 0 0 0 0 0 0 0 0 0 0 0 0 0 0 0 0 0 0 0 0
0 0 0 0 0 1 3 6 7 2 3 4 3 0 1 1 2 0 0 0 0 0 0 0 0 0 0 0 0 0 0 0 0 0 0 0 0 0 0 0 0 0 0 0 0 0 0 0 0 0 0 0 0 0
0 0 0 0 2 5 5 2 2 1 2 4 3 0 0 1 0 0 0 0 0 0 0 0 0 0 0 0 0 0 0 0 0 0 0 0 0 0 0 0 0 0 0 0 0 0 0 0 0 0 0 0 0 0
0 0 0 6 8 4 0 1 1 1 3 2 2 1 1 0 0 0 0 0 0 0 0 0 0 0 0 0 0 0 0 0 0 0 0 0 0 0 0 0 0 0 0 0 0 0 0 0 0 0 0 0 0 0
1 0 2 8 3 1 1 1 1 3 2 1 1 0 0 0 0 0 0 0 0 0 0 0 0 0 0 0 0 0 0 0 0 0 0 0 0 0 0 0 0 0 0 0 0 0 0 0 0 0 0 0 0 0
2 6 5 3 4 6 6 2 2 2 0 0 0 0 0 0 0 0 0 0 0 0 0 0 0 0 0 0 0 0 0 0 0 0 0 0 0 0 0 0 0 0 0 0 0 0 0 0 0 0 0 0 0 0
4 3 4 5 6 5 4 3 3 1 0 0 0 0 0 0 0 0 0 0 0 0 0 0 0 0 0 0 0 0 3 0 0 0 0 0 0 0 0 0 0 0 0 0 0 0 0 0 0 0 0 0 0 0
4 4 4 3 6 9 5 4 0 0 0 0 0 2 0 0 0 0 0 0 2 0 0 0 0 0 0 0 0 0 12 1 14 0 1 2 24 0 0 0 0 0 0 0 0 0 0 0 0 0 0 0 0 0
7 5 4 4 4 4 3 0 0 0 0 0 3 1 0 0 0 0 0 0 0 1 24 25 7 3 0 0 0 4 26 8 0 1 2 2 0 0 0 0 0 0 0 0 0 0 0 0 0 0 0 0 0 0
8 6 5 4 3 1 0 0 0 0 0 1 0 0 0 0 0 0 0 1 14 71 44 33 26 3 6 26 7 29 7 12 16 7 24 40 0 0 0 0 0 0 0 0 0 0 0 0 0 0 0 0 0 0
8 6 4 2 0 0 0 0 0 0 0 1 0 0 0 0 0 1 1 2 33 1 0 0 0 1 1 22 3 14 19 19 0 14 2 0 0 0 0 0 0 0 0 0 0 0 0 0 0 0 0 0 0 0
9 2 0 0 0 0 0 0 0 0 0 1 0 0 0 0 0 0 0 0 2 1 15 0 0 0 4 16 15 10 8 7 4 21 53 5 2 0 0 0 0 0 0 0 0 0 0 0 0 0 0 0 0 0
7 1 1 0 0 0 0 0 0 2 0 0 0 0 0 0 0 0 0 0 17 1 5 5 17 14 0 1 16 0 0 13 25 168 91 31 4 0 0 0 0 0 0 0 0 0 0 0 0 0 0 0 0 0
4 0 8 7 0 0 0 1 7 19 31 2 0 0 0 0 0 0 0 0 10 13 19 23 29 7 1 1 6 0 0 0 0 14 33 28 0 0 0 0 0 0 0 0 0 0 0 0 0 0 0 0 0 0
4 3 2 10 13 2 1 2 13 11 6 0 0 0 0 0 0 0 0 0 11 8 39 17 11 1 0 0 0 0 0 0 0 0 31 65 6 0 0 0 0 0 0 0 0 0 0 0 0 0 0 0 0 0
11 9 8 13 15 3 4 1 6 13 13 2 0 0 0 0 0 0 0 0 4 55 43 41 4 0 0 1 0 0 0 0 0 3 52 86 2 0 0 0 0 0 0 0 0 0 0 0 0 0 0 0 0 0
7 0 4 6 7 4 3 3 2 0 1 0 0 0 0 0 0 0 0 0 5 24 10 7 18 0 0 0 0 0 0 0 0 0 56 34 0 0 0 0 0 0 0 0 0 0 0 0 0 0 0 0 0 0
0 9 6 7 9 7 3 0 2 0 0 0 0 0 0 0 0 0 0 0 0 0 0 0 0 0 0 0 0 6 0 0 0 0 0 0 18 3 1 1 2 13 10 0 0 0 0 0 0 0 0 0 0 0
3 9 19 4 12 4 0 1 8 2 11 7 13 5 0 0 2 0 0 0 0 0 0 0 0 0 0 0 0 4 0 0 0 0 0 0 0 0 0 0 1 18 11 2 0 0 0 0 0 0 2 2 3 6
0 12 13 13 4 0 5 5 4 6 12 19 21 18 10 0 0 34 2 0 0 0 0 0 0 0 0 0 0 1 1 0 0 0 0 0 0 0 0 0 0 4 8 1 0 0 0 0 0 0 0 0 0 5
5 0 0 0 3 7 8 18 20 19 14 24 20 8 1 6 16 24 19 27 17 24 10 2 0 0 0 0 0 8 3 0 0 0 0 0 0 0 0 0 0 0 0 0 0 0 0 0 0 0 0 0 0 0
0 1 0 3 10 5 14 14 24 17 28 34 23 22 24 33 32 20 28 19 25 38 30 3 16 9 7 11 15 6 10 0 0 0 0 0 0 0 0 0 0 0 0 0 0 0 0 0 0 0 0 0 1 1
5 4 1 0 0 14 7 7 7 10 13 24 20 15 26 19 17 31 9 13 27 11 0 0 2 10 2 6 16 4 0 0 0 0 2 0 0 0 0 0 0 0 0 0 0 0 0 0 0 0 0 0 0 0
7 10 14 14 4 13 17 22 16 15 15 2 4 25 19 28 7 2 2 4 6 3 2 0 0 0 0 1 1 0 0 0 0 0 0 0 0 0 0 0 0 0 0 0 0 0 0 0 0 0 0 0 0 0
14 8 9 0 0 15 23 12 3 0 0 8 17 20 17 2 0 3 0 0 0 0 0 0 0 0 3 0 0 0 0 0 0 16 13 3 0 5 0 0 0 0 0 0 0 0 0 0 0 0 0 0 0 0
0 0 0 0 1 0 0 0 0 0 0 0 0 0 0 0 0 0 0 0 0 0 0 0 0 2 7 10 37 18 0 0 0 0 2 0 0 0 0 0 0 0 0 0 0 0 0 0 0 0 0 0 0 0
0 0 0 0 0 0 0 0 0 0 0 0 0 0 0 0 0 0 0 0 0 0 0 0 0 0 15 15 7 7 10 0 0 0 0 0 0 0 0 0 0 0 0 0 0 0 0 0 0 0 0 0 0 0
0 0 0 0 0 0 0 0 0 0 0 0 0 0 0 0 0 0 0 0 0 0 0 0 0 0 8 2 0 0 0 0 0 0 0 0 0 0 0 0 0 0 0 0 0 0 0 0 0 0 0 0 0 0
0 0 0 0 0 0 0 0 0 0 0 0 0 0 0 0 0 0 0 0 0 0 0 0 0 0 0 0 0 0 0 0 0 0 0 0 0 0 0 0 0 0 0 0 0 0 0 0 0 0 0 0 0 0